Retour au catalogue

FENGYUN 1C DEB

ActifSSO
NORAD 29763·DEBRIS·🇨🇳 China

Lancé May 10, 1999 depuis Taiyuan Satellite Launch Center

Loading…

Prochains Passages (prochaines 24 heures)

TLE

FraisSource: Space-Track

Époque: Sep 14, 2026, 16:48 UTC

1 29763U 99025BD  26257.70058387  .00000268  00000-0  16867-3 0  9999
2 29763  98.7918 234.5747 0128081 122.5205  51.2990 14.08071392  9347

Suivez FENGYUN 1C DEB en temps réel avec AllMySat

Download on the App Store